Wind_Speed
18 19 19 20 20 20 20 20 19 19 19 19 18 17 16 15 13 13 12 12 12 12 13 15 17 19 22 25 28 30 33 35 37 39 40 42 43 43 44 43 43 43 42
17 18 19 20 20 20 20 19 19 19 19 19 18 18 17 15 14 14 13 13 12 11 11 12 14 16 18 22 25 27 30 33 35 37 39 40 41 43 44 44 45 44 43
17 19 19 20 20 20 20 19 19 20 20 19 18 18 17 16 15 15 15 14 12 11 10 10 11 13 15 17 21 24 27 29 32 35 36 38 39 40 41 43 44 45 45
18 19 20 20 20 20 20 20 19 19 19 19 19 18 18 17 16 16 15 14 13 11 9 9 10 11 12 14 16 20 23 26 30 33 35 36 36 38 40 40 41 42 43
18 19 20 20 20 20 20 20 19 19 19 19 19 19 18 17 17 16 16 14 13 11 9 9 9 10 10 12 14 16 19 22 26 30 33 34 36 37 38 39 39 41 42
18 19 20 20 20 20 20 20 20 20 19 19 19 19 18 18 17 16 16 15 13 11 10 9 8 9 10 11 13 14 16 19 22 25 29 32 34 36 38 39 39 40 42
18 19 20 20 20 21 21 21 21 20 20 19 19 18 18 18 17 16 16 15 14 12 11 10 9 9 10 11 12 13 15 17 20 22 25 28 31 33 36 37 38 39 40
18 19 20 20 21 21 21 21 21 21 20 19 19 18 18 18 17 16 16 15 14 13 12 11 10 10 10 10 11 13 14 16 17 19 21 24 28 30 33 35 36 37 39
19 20 20 21 22 21 21 21 21 21 20 19 19 18 18 17 17 17 16 15 14 14 13 13 12 11 11 11 11 13 14 15 16 18 20 22 24 27 29 32 34 35 37
19 20 21 22 22 22 22 22 22 21 21 20 19 19 18 18 17 17 16 16 15 14 14 13 13 13 12 12 12 12 13 15 16 17 19 21 23 25 27 29 31 34 35
20 21 22 23 23 23 23 23 22 22 22 21 20 19 19 18 18 17 17 16 16 15 15 14 14 13 13 13 13 13 13 14 15 17 18 20 22 23 25 27 30 31 33
21 22 23 24 24 24 23 23 23 23 22 21 21 20 20 19 19 18 18 17 17 16 16 15 15 15 14 15 15 15 15 15 16 17 18 19 21 23 24 26 28 30 31
22 23 24 24 25 25 24 24 24 23 23 22 21 21 21 21 20 20 19 18 18 17 17 17 16 16 16 17 17 16 16 17 17 18 18 19 21 23 24 26 28 30 30
23 24 25 25 26 26 25 25 25 24 23 23 22 22 22 22 21 21 21 20 20 20 19 19 18 18 18 19 19 19 19 19 19 20 20 21 22 23 24 26 28 29 30
25 26 26 27 27 27 26 26 26 25 24 24 23 23 23 23 22 22 22 22 22 22 22 21 21 21 20 21 21 21 22 22 22 23 23 24 24 25 25 26 28 29 30
26 27 28 28 28 28 28 27 26 26 25 25 25 25 24 24 24 24 24 24 24 24 24 24 24 24 24 24 24 25 25 25 25 25 26 26 27 27 27 27 28 29 30
28 28 29 29 30 30 30 29 28 28 27 27 26 26 25 25 25 25 25 25 25 26 26 26 26 27 27 27 27 27 28 28 28 28 28 28 29 30 30 30 29 30 31
29 30 30 31 31 31 31 31 31 30 29 29 28 28 27 26 26 26 27 27 28 28 28 28 28 29 29 29 30 30 30 31 31 32 32 32 32 32 32 33 33 32 32
31 31 32 32 32 33 33 33 32 32 31 31 31 30 29 29 29 28 29 29 30 30 31 31 31 31 32 32 33 33 33 33 33 34 34 35 35 35 35 36 36 36 36
33 33 34 34 34 34 34 34 34 33 33 33 33 33 32 32 32 31 31 32 32 33 33 34 34 34 35 35 35 36 36 36 36 37 37 37 38 38 39 39 39 39 39
35 35 36 36 36 36 36 36 35 35 35 35 34 34 34 34 34 34 34 35 35 36 36 37 37 38 38 39 39 39 39 39 40 40 40 41 41 41 41 41 42 42 42
37 38 38 38 38 38 38 38 37 37 36 36 36 36 36 36 36 36 37 37 38 39 39 40 40 41 42 42 43 43 43 44 44 45 45 45 45 46 45 45 45 45 46
40 40 40 40 41 41 40 39 39 38 38 37 37 38 38 38 38 39 39 40 41 41 42 42 43 44 45 46 47 47 48 49 49 50 50 50 50 50 50 50 49 49 48
42 42 43 43 42 42 41 40 40 39 39 39 39 39 39 40 40 41 41 42 42 43 44 45 46 47 48 50 51 52 53 54 54 54 54 54 54 53 53 53 53 52 52
44 44 44 44 43 43 42 41 41 41 40 40 40 40 41 41 41 42 43 43 44 45 46 48 49 50 52 53 54 54 55 55 56 56 56 56 56 56 56 56 55 55 54
45 45 45 44 44 43 43 42 42 42 41 41 41 41 41 42 42 43 44 45 46 47 48 50 51 53 54 55 55 56 56 57 58 58 58 58 57 57 57 56 56 55 55
Wind_Direction
359 360 360 0 1 1 1 2 1 0 1 1 1 359 356 351 346 340 331 320 306 292 278 266 258 255 251 246 242 240 237 235 233 234 234 234 233 234 235 234 233 235 235
355 356 357 357 358 358 358 359 358 358 358 358 358 357 355 352 349 345 338 330 320 307 288 273 265 261 256 251 246 243 238 235 233 233 234 236 236 235 235 236 236 236 238
353 353 354 354 354 354 355 355 355 356 356 356 356 355 354 351 348 346 342 336 329 320 304 285 274 268 263 255 249 244 240 236 234 234 235 236 237 237 236 236 237 238 239
351 351 351 352 352 352 351 352 352 353 354 354 354 353 351 349 348 347 345 341 336 330 319 301 287 277 270 262 254 248 243 239 237 236 236 237 239 239 239 239 239 239 241
348 349 349 350 351 352 351 350 350 350 350 351 352 352 350 348 347 347 348 345 341 336 329 316 303 290 281 272 262 254 248 244 242 240 239 240 240 240 240 240 240 240 241
345 346 347 348 349 350 350 349 348 348 348 348 349 349 349 347 346 345 346 345 343 338 333 323 312 301 290 281 267 258 253 249 248 246 244 242 241 241 241 242 242 243 242
342 343 344 345 345 346 347 347 346 345 344 345 346 347 347 347 347 346 345 344 341 335 331 326 318 309 298 286 273 264 259 256 253 252 249 246 245 243 242 243 244 244 244
338 339 341 341 342 342 343 344 344 344 343 343 343 344 344 344 345 345 345 343 341 337 332 327 320 313 307 295 284 277 270 264 259 255 252 250 250 249 248 247 247 247 247
333 335 337 338 339 339 340 341 341 340 340 340 340 341 341 341 341 341 341 340 337 336 332 326 321 316 310 302 293 287 280 273 267 261 256 253 253 254 254 252 250 248 247
329 332 334 334 335 335 336 336 336 336 335 336 335 335 336 336 336 337 336 334 333 332 330 327 323 318 311 306 300 293 288 281 273 269 264 258 257 258 257 255 252 250 249
324 327 330 332 333 332 332 331 332 332 331 331 331 330 331 331 332 332 332 331 328 326 324 322 320 318 313 307 302 296 292 287 281 277 273 268 264 261 260 257 255 253 251
319 323 326 328 329 329 329 328 328 328 327 326 326 325 325 325 326 326 327 326 325 321 318 317 316 314 311 307 303 298 291 287 284 281 278 274 270 267 263 261 258 255 253
314 318 321 324 326 326 326 325 324 324 324 323 322 321 320 319 320 320 320 321 321 319 316 313 311 310 308 306 303 299 295 289 285 282 280 276 273 271 268 264 261 258 257
310 314 317 320 322 323 323 322 321 320 320 319 318 318 316 316 315 315 315 315 315 315 314 311 308 306 304 302 301 298 295 291 287 283 281 279 276 274 271 269 266 261 258
306 310 313 315 318 319 319 319 319 318 316 315 314 314 313 312 311 311 311 311 311 311 310 309 307 303 301 300 298 297 294 292 289 285 281 280 278 276 274 273 271 266 260
303 306 309 311 313 315 316 315 315 314 313 311 311 310 309 308 306 306 306 306 306 306 305 305 304 302 299 297 296 295 293 291 288 286 284 281 278 276 275 274 273 270 265
300 303 305 308 309 311 312 312 311 310 310 309 308 307 306 305 304 303 302 302 302 302 302 302 301 300 298 296 294 293 292 290 289 286 284 282 279 277 275 273 272 269 267
297 301 303 305 307 308 309 309 308 308 307 307 306 306 304 303 302 302 301 301 300 300 300 300 299 299 298 297 295 294 292 290 288 287 285 283 282 279 276 273 271 270 269
295 298 300 302 304 305 306 306 306 305 304 304 304 304 302 301 300 300 300 300 299 299 299 298 298 297 297 296 295 294 292 290 289 287 286 284 283 281 278 276 273 270 269
293 296 298 300 301 302 303 303 303 302 301 301 302 302 301 300 299 299 298 299 299 299 298 298 297 296 296 295 294 293 291 290 289 287 286 284 283 281 279 277 275 272 270
290 293 296 297 299 300 300 300 300 299 299 299 299 299 298 298 297 297 298 298 298 298 298 297 297 296 295 294 293 292 290 289 288 287 285 284 283 281 279 277 275 272 270
288 291 293 295 297 298 298 298 297 297 298 298 297 296 296 296 296 296 296 296 297 298 297 296 296 296 295 294 293 292 291 289 288 287 285 284 282 280 279 277 275 272 270
286 289 291 293 294 296 296 296 296 296 296 296 296 295 296 296 296 296 296 296 297 297 297 297 297 296 295 295 293 292 291 290 289 288 286 284 282 280 278 276 274 271 269
285 287 289 291 293 294 294 294 294 294 294 295 295 294 295 295 295 296 296 297 297 297 298 298 297 297 297 296 295 294 293 291 290 289 287 284 282 280 278 276 273 271 268
283 286 287 289 291 292 292 293 293 293 293 294 294 294 294 295 295 296 296 297 298 298 299 299 298 298 298 297 297 296 295 294 292 291 289 286 283 281 278 275 273 270 267
282 284 286 287 289 290 291 291 292 293 293 293 293 293 294 294 295 296 297 298 299 300 300 300 300 300 300 300 299 298 297 296 295 293 291 288 286 283 279 276 273 269 266
Height
5810 5806 5803 5799 5796 5792 5788 5784 5781 5777 5773 5770 5766 5763 5759 5756 5754 5751 5749 5747 5746 5745 5744 5745 5745 5746 5747 5749 5751 5754 5757 5761 5765 5769 5773 5778 5783 5788 5793 5797 5802 5806 5810
5809 5805 5802 5799 5795 5791 5788 5784 5780 5777 5773 5769 5765 5762 5758 5755 5752 5749 5747 5744 5742 5740 5740 5740 5740 5740 5741 5742 5744 5746 5749 5752 5757 5761 5765 5769 5774 5779 5784 5788 5792 5797 5801
5807 5804 5801 5798 5794 5791 5787 5783 5780 5776 5772 5768 5764 5761 5757 5754 5751 5747 5744 5741 5738 5736 5735 5735 5735 5735 5736 5736 5737 5739 5742 5745 5749 5753 5757 5761 5765 5770 5774 5779 5783 5787 5792
5806 5803 5800 5796 5793 5789 5786 5782 5779 5775 5771 5767 5763 5760 5756 5752 5749 5745 5742 5738 5735 5733 5732 5731 5731 5731 5731 5732 5732 5734 5736 5738 5741 5745 5749 5753 5757 5761 5765 5770 5774 5778 5782
5804 5801 5798 5795 5791 5788 5784 5780 5777 5773 5770 5766 5762 5758 5754 5751 5747 5744 5740 5737 5733 5731 5730 5729 5728 5728 5728 5728 5728 5729 5730 5732 5735 5738 5741 5745 5748 5752 5756 5760 5764 5768 5772
5803 5799 5796 5793 5790 5786 5782 5779 5775 5772 5768 5765 5761 5757 5753 5749 5746 5742 5739 5735 5732 5730 5728 5727 5726 5726 5725 5724 5724 5725 5726 5727 5729 5731 5734 5737 5740 5743 5747 5751 5755 5758 5763
5800 5797 5794 5791 5788 5784 5780 5777 5773 5770 5766 5762 5759 5755 5752 5748 5744 5741 5737 5734 5732 5729 5727 5725 5724 5723 5722 5722 5721 5721 5722 5722 5724 5725 5727 5729 5732 5735 5739 5742 5745 5748 5752
5798 5795 5792 5789 5785 5782 5778 5774 5771 5767 5764 5760 5757 5753 5750 5746 5743 5740 5736 5733 5731 5728 5726 5724 5722 5721 5720 5719 5718 5718 5718 5718 5719 5720 5721 5722 5724 5727 5730 5733 5735 5739 5742
5795 5792 5789 5786 5782 5779 5775 5772 5768 5765 5761 5758 5755 5751 5748 5745 5741 5738 5735 5732 5729 5727 5725 5722 5721 5719 5717 5716 5716 5715 5714 5714 5714 5714 5715 5716 5717 5719 5721 5723 5726 5729 5731
5792 5789 5786 5783 5779 5776 5772 5769 5765 5762 5759 5755 5752 5749 5746 5742 5739 5736 5733 5730 5727 5725 5723 5721 5719 5717 5715 5714 5713 5712 5711 5710 5710 5710 5710 5710 5711 5712 5713 5715 5716 5719 5721
5788 5785 5782 5779 5775 5772 5769 5765 5762 5759 5755 5752 5749 5746 5743 5740 5736 5733 5731 5728 5725 5722 5720 5718 5716 5714 5712 5711 5709 5708 5707 5706 5706 5705 5705 5705 5705 5705 5706 5707 5708 5710 5712
5783 5781 5778 5775 5771 5768 5765 5761 5758 5755 5751 5748 5745 5742 5739 5736 5733 5730 5728 5725 5722 5720 5717 5715 5713 5711 5709 5707 5706 5704 5703 5702 5701 5700 5700 5699 5699 5699 5699 5699 5700 5702 5703
5778 5776 5773 5770 5767 5763 5760 5757 5754 5750 5747 5744 5741 5738 5735 5732 5730 5727 5724 5721 5719 5716 5714 5711 5709 5707 5705 5703 5701 5700 5698 5697 5696 5695 5694 5693 5693 5692 5692 5692 5692 5693 5694
5773 5770 5767 5765 5762 5758 5755 5752 5749 5745 5742 5739 5736 5733 5730 5728 5725 5722 5719 5717 5714 5712 5709 5707 5705 5703 5701 5698 5696 5695 5693 5692 5690 5689 5688 5687 5686 5685 5685 5684 5684 5684 5685
5766 5764 5761 5759 5756 5753 5750 5746 5743 5740 5737 5734 5731 5728 5725 5722 5720 5717 5714 5712 5709 5706 5704 5702 5699 5697 5695 5693 5691 5689 5687 5685 5684 5683 5681 5680 5679 5678 5677 5676 5675 5675 5676
5760 5758 5755 5752 5749 5746 5743 5740 5737 5734 5731 5728 5725 5722 5719 5717 5714 5711 5709 5706 5703 5701 5698 5696 5693 5691 5689 5686 5684 5682 5680 5678 5676 5674 5673 5672 5670 5669 5668 5667 5667 5666 5667
5753 5750 5748 5745 5742 5739 5736 5733 5730 5728 5725 5722 5719 5716 5713 5710 5707 5704 5702 5699 5697 5694 5692 5689 5686 5684 5681 5679 5676 5674 5671 5669 5667 5665 5663 5662 5661 5660 5659 5658 5657 5657 5657
5745 5743 5740 5737 5734 5731 5728 5725 5722 5719 5717 5714 5711 5708 5705 5702 5700 5697 5694 5692 5689 5686 5684 5681 5678 5675 5673 5670 5667 5665 5662 5660 5657 5655 5653 5652 5650 5649 5648 5647 5647 5646 5646
5736 5734 5732 5729 5726 5723 5720 5717 5714 5711 5708 5705 5702 5700 5697 5694 5691 5689 5686 5683 5680 5678 5675 5672 5669 5666 5663 5660 5657 5655 5652 5649 5647 5644 5642 5640 5639 5637 5636 5635 5635 5634 5634
5727 5725 5722 5720 5717 5714 5711 5708 5705 5702 5699 5696 5693 5691 5688 5685 5682 5679 5677 5674 5671 5668 5665 5662 5659 5656 5653 5649 5646 5644 5641 5638 5635 5633 5630 5628 5626 5625 5623 5622 5621 5621 5621
5717 5715 5713 5710 5707 5705 5702 5699 5696 5693 5690 5687 5684 5681 5678 5675 5672 5669 5667 5664 5661 5658 5654 5651 5648 5644 5641 5637 5634 5631 5628 5625 5622 5620 5617 5615 5613 5611 5609 5608 5607 5607 5607
5706 5704 5702 5700 5697 5694 5691 5688 5685 5682 5679 5677 5674 5671 5668 5665 5662 5659 5656 5653 5649 5646 5642 5639 5635 5631 5628 5624 5621 5617 5614 5611 5607 5605 5602 5600 5597 5595 5594 5592 5591 5591 5591
5695 5693 5691 5688 5686 5683 5680 5677 5674 5672 5669 5666 5663 5660 5657 5654 5651 5648 5644 5641 5637 5633 5629 5626 5622 5618 5614 5609 5605 5602 5598 5594 5591 5587 5584 5582 5579 5577 5576 5574 5573 5573 5573
5682 5681 5679 5676 5674 5671 5668 5666 5663 5660 5657 5654 5651 5648 5645 5642 5639 5635 5632 5628 5624 5620 5616 5611 5607 5603 5598 5594 5589 5584 5579 5575 5571 5567 5564 5562 5559 5557 5555 5554 5553 5553 5553
5670 5668 5666 5664 5661 5659 5656 5654 5651 5648 5645 5642 5639 5636 5633 5630 5626 5623 5619 5615 5611 5606 5602 5597 5592 5587 5582 5576 5571 5565 5560 5554 5550 5545 5542 5539 5537 5535 5533 5532 5531 5531 5532
5656 5655 5653 5651 5649 5646 5644 5641 5639 5636 5633 5630 5627 5624 5620 5617 5613 5610 5606 5601 5597 5592 5587 5582 5576 5570 5564 5558 5552 5545 5539 5534 5528 5523 5519 5516 5513 5511 5509 5508 5507 5508 5509